Location: Chena
(64.8152°N, 147.9227°W)
Time: 07:08:59
(UTC+00:00)

N. Korean satellite - Pass Details

Date: 25 January 2021
Orbit: 451 x 502 km, 97.2° (Epoch: 08 March)

Event Time Altitude Azimuth Distance (km) Brightness Sun altitude
Rises 02:50:25 0° 189° (S) 2,581 10.7 -9.6°
Reaches altitude 10° 02:52:39 10° 199° (SSW) 1,695 10.0 -9.8°
Maximum altitude 02:55:58 32° 264° (W) 868 8.6 -10.1°
Drops below altitude 10° 02:59:15 10° 330° (NNW) 1,681 9.4 -10.4°
Sets 03:01:28 0° 340° (NNW) 2,556 10.2 -10.7°
